Location: Unspecified
(0.0000°N, 0.0000°E)
Time: 16:43:03
(UTC+00:00)

A-11 Canister half - All Passes

Search period start: 18 April 2015 00:00
Search period end: 28 April 2015 00:00
Orbit: 1527 x 1682 km, 47.3° (Epoch: 16 April)

Date Brightness Start Highest point End Pass type
(mag) Time Alt. Az. Time Alt. Az. Time Alt. Az.
18 Apr - 06:20:47 10° SSW 06:29:38 44° SE 06:38:52 10° ENE daylight
18 Apr - 08:25:45 10° WSW 08:34:42 40° NW 08:43:45 10° NNE daylight
18 Apr - 17:10:27 10° N 17:16:27 18° NE 17:22:56 10° E daylight
18 Apr - 19:12:10 10° NW 19:22:03 89° SW 19:31:38 10° SE visible
18 Apr - 21:21:31 10° W 21:27:30 17° SW 21:32:46 10° S visible
19 Apr - 05:59:23 10° SSW 06:08:04 41° SE 06:17:08 10° ENE daylight
19 Apr - 08:04:04 10° WSW 08:13:07 43° NW 08:22:18 10° NNE daylight
19 Apr - 16:49:16 10° N 16:54:48 17° NE 17:00:55 10° E daylight
19 Apr - 18:50:36 10° NW 19:00:31 86° NE 19:10:07 10° SE visible
19 Apr - 20:59:26 10° W 21:05:53 18° SW 21:11:39 10° S visible
20 Apr - 05:38:00 10° SSW 05:46:30 38° SE 05:55:24 10° ENE daylight
20 Apr - 07:42:24 10° WSW 07:51:33 46° NW 08:00:50 10° NNE daylight
20 Apr - 16:28:08 10° NNE 16:33:09 16° NE 16:38:49 10° ENE daylight
20 Apr - 18:29:01 10° NW 18:38:57 81° NE 18:48:35 10° SE visible
20 Apr - 20:37:25 10° W 20:44:16 20° SW 20:50:29 10° S visible
21 Apr - 05:16:38 10° SSW 05:24:56 35° SE 05:33:38 10° ENE visible
21 Apr - 07:20:46 10° WSW 07:29:58 50° NW 07:39:22 10° NNE daylight
21 Apr - 16:07:03 10° NNE 16:11:29 14° NE 16:16:38 10° ENE daylight
21 Apr - 18:07:28 10° NW 18:17:24 77° NE 18:27:01 10° SE visible
21 Apr - 20:15:26 10° W 20:22:39 22° SW 20:29:17 10° S visible
22 Apr - 04:55:18 10° S 05:03:21 33° SE 05:11:51 10° ENE visible
22 Apr - 06:59:07 10° SW 07:08:23 53° NW 07:17:53 10° NNE daylight
22 Apr - 15:46:05 10° NNE 15:49:49 13° NE 15:54:20 10° ENE daylight
22 Apr - 17:45:56 10° NNW 17:55:50 72° NE 18:05:28 10° SE daylight
22 Apr - 19:53:30 10° W 20:01:03 24° SW 20:08:02 10° S visible
23 Apr - 04:33:58 10° S 04:41:47 30° SE 04:50:02 10° ENE visible
23 Apr - 06:37:30 10° SW 06:46:49 57° NW 06:56:23 10° NNE daylight
23 Apr - 15:25:17 10° NNE 15:28:08 12° NE 15:31:51 10° ENE daylight
23 Apr - 17:24:24 10° NNW 17:34:16 67° NE 17:43:52 10° SE daylight
23 Apr - 19:31:35 10° W 19:39:27 26° SW 19:46:46 10° S visible
24 Apr - 04:12:39 10° S 04:20:11 28° SE 04:28:12 10° ENE visible
24 Apr - 06:15:54 10° SW 06:25:16 61° NW 06:34:53 10° NNE daylight
24 Apr - 15:04:51 10° NNE 15:06:27 11° NE 15:09:00 10° NE daylight
24 Apr - 17:02:52 10° NNW 17:12:42 63° NE 17:22:17 10° SE daylight
24 Apr - 19:09:43 10° WNW 19:17:51 28° SW 19:25:28 10° S visible
25 Apr - 03:51:21 10° S 03:58:36 26° SE 04:06:21 10° ENE visible
25 Apr - 05:54:19 10° SW 06:03:42 65° NW 06:13:23 10° NNE daylight
25 Apr - 08:07:00 10° WNW 08:09:51 11° NW 08:11:49 10° NNW daylight
25 Apr - 16:41:22 10° NNW 16:51:08 59° NE 17:00:41 10° SE daylight
25 Apr - 18:47:52 10° WNW 18:56:16 30° SW 19:04:10 10° S visible
26 Apr - 03:30:05 10° S 03:37:01 24° SE 03:44:28 10° E visible
26 Apr - 05:32:44 10° SW 05:42:09 70° NW 05:51:51 10° NNE visible
26 Apr - 07:44:18 10° WNW 07:48:11 12° NW 07:51:14 10° NNW daylight
26 Apr - 16:19:52 10° NNW 16:29:34 55° NE 16:39:04 10° SE daylight
26 Apr - 18:26:02 10° WNW 18:34:40 32° SW 18:42:49 10° S visible
27 Apr - 03:08:50 10° S 03:15:25 22° SE 03:22:33 10° E visible
27 Apr - 05:11:11 10° SW 05:20:37 74° NW 05:30:19 10° NNE visible
27 Apr - 07:21:55 10° WNW 07:26:30 13° NW 07:30:22 10° NNW daylight
27 Apr - 15:58:23 10° NNW 16:07:59 52° NE 16:17:26 10° ESE daylight
27 Apr - 18:04:14 10° WNW 18:13:05 35° SW 18:21:28 10° SSE visible
